Погода в Куми

Южная Корея     36°07′29″N   128°20′47″E
темп.,
°C
ветер,
м/с
пор.,
м/с
влажн.,
%
обл.,
%
осадки,
мм/ч
давл.,
гПа
погр.,
м
14 мая, пт
пт1400:00+16ю1289100 0.0 101339
03:00+15ю1192100 0.0 101327
06:00+15ссз1193100 0.0 101420
09:00+21вюв1170100 0.0 1014450
12:00+24юв2359100 0.0 1013800
15:00+27юв2449100 0.0 10111511
18:00+24юв3758100 0.0 1011460
21:00+19юв2373100 0.0 101291
15 мая, сб
сб1500:00+17ююв228199 0.0 101261
03:00+16ююв1185100 0.0 101145
06:00+16ююв1194100 2.3 101062
09:00+16вюв1196100 4.6 1010141
12:00+17вюв1294100 0.0 1008253
15:00+18вюв0194100 0.3 1006177
18:00+18юв1193100 0.0 1006205
21:00+17ююв119892 0.0 100731
16 мая, вс
вс1600:00+17ююв1198100 0.0 100723
03:00+17ююв1299100 0.9 100665
06:00+17ююв23100100 3.4 1005178
09:00+18ююв2399100 11.8 1005216
12:00+20юв2397100 0.3 1004339
15:00+19вюв1299100 2.1 1003211
18:00+18вюв2299100 7.2 1004184
21:00+16юв2398100 8.1 1005190
17 мая, пн
пн1700:00+15вюв2399100 8.2 1005223
03:00+13вюв2398100 13.2 1002267
06:00+13юв2398100 7.6 1003217
09:00+13юв2697100 11.6 1004412
12:00+13вюв2397100 1.0 1004279
15:00+13вюв1397100 2.2 1005260
18:00+13вюв1296100 0.3 1006219
21:00+12юв1196100 0.3 1008104
18 мая, вт
вт1800:00+12в1197100 0.1 100882
03:00+12ссв1198100 0.6 100987
06:00+12ссз119791 0.0 101095
09:00+14сз248265 0.1 1013707
12:00+21ссз47520 0.0 10121251
15:00+24сз46414 0.0 10111562
18:00+21сз245978 0.0 1012201
21:00+15з217599 0.0 101412